Find Starlink 31909

NORAD ID: 59663 Int'l Des: 2024-084 Owner: SPXS Country: US Constellation: starlink operational
LEOCIRCULAR

Live Position

Loading 3D Globe...

About Starlink 31909

Description loading...

Upcoming Passes

Passes for default location (London). Set your location on the main map for personalized predictions.

Altitude History

Loading altitude history...

Two-Line Element Set

1 59663U 24084K 26106.25926736 .00000330 00000-0 21532-4 0 9995
2 59663 43.0005 189.2611 0001377 276.1000 83.9695 15.27578187110121
Epoch: Apr 16, 2026 • Age: 11 hours

Current Status

Altitude 483.6 km
Velocity 7.63 km/s
Sub-Earth Point -6.38°S, 77.47°E
Launch Date May 6, 2024
Age 1.9 years
Type internet

Technical Details

Classification Payload
Mass 730.00 kg
Dry Mass 700.00 kg
Total Mass 730.00 kg
Length 0.30 m
Diameter 4.10 m
Span 29.00 m
Shape Box + pan
Manufacturer SPXS
Bus Type Starlink V2M
Phase Status In Orbit
Owner/State SPXS/US

Most Searched